Regional Weather Roundup
Issued by NWS

Home | Current Version | Previous Version | Text Only | Print | Product List | Glossary Off
Versions: 1 2 3 4 5 6 7 8 9 10 11 12 13 14 15 16 17 18 19 20 21 22 23 24 25 26 27 28 29 30 31 32 33 34 35 36 37 38 39 40 41 42 43 44 45 46 47 48 49

163
ASUS45 KSLC 071010
RWRUT

UTAH REGIONAL WEATHER ROUNDUP
NATIONAL WEATHER SERVICE SALT LAKE CITY UT
300 AM MST SUN FEB 07 2016

UTZ001>011-023>025-071100-

NORTHERN UTAH

CITY           SKY/WX    TMP DP  RH WIND       PRES   REMARKS
BRIGHAM CITY   MOCLDY    25  21  85 CALM      30.50S
HILL AFB       MOCLDY    24  16  70 SE5       30.47S WCI  18
LOGAN          PTCLDY    23  18  81 CALM      30.46S
OGDEN          MOCLDY    26  20  77 S7        30.47F WCI  18
PROVO AIRPORT  PTCLDY    16  10  79 W3        30.51R
SALT LAKE CITY MOCLDY    25  20  81 SE6       30.49S WCI  18
VERNAL         CLOUDY     7   4  87 NW6       30.45R WCI  -3
WENDOVER       PTCLDY    25  19  80 E7        30.50R WCI  17
HEBER CITY     PTCLDY    10   7  85 CALM      30.45F
WEST JORDAN    CLEAR     23  19  86 S6        30.48F WCI  16

$$

UTZ012>022-026-027-071100-

SOUTHERN/CENTRAL UTAH

CITY           SKY/WX    TMP DP  RH WIND       PRES   REMARKS
BLANDING       CLEAR     19  13  79 CALM      30.48S
BRYCE CANYON   CLEAR      9   4  80 W10       30.44S WCI  -5
CEDAR CITY     FOG        8   5  87 CALM      30.44S VSB 1/2
DELTA          CLOUDY     3   1  89 S3        30.50S VSB<1/4
HANKSVILLE     CLOUDY    18  16  93 NE3       30.55S VSB 1/2
MILFORD        MOCLDY     0  -3  87 SW7       30.47F FOG     WCI -13
MOAB/CYNLANDS  MOCLDY     6   3  87 W3        30.50S FOG
PRICE          PTCLDY    10   6  84 N5        30.43S WCI   2
ST GEORGE      MOSUNNY   36  23  60 CALM      30.44S
KANAB          CLEAR     32  25  74 N8        30.44S WCI  25

$$

REGIONAL REPORTS     COLORADO/ARIZONA

CITY           SKY/WX    TMP DP  RH WIND       PRES   REMARKS
CRAIG, CO      CLOUDY     4   2  91 CALM      30.39R
GRAND JUNCTION CLOUDY    15  13  91 CALM      30.49S
RIFLE          CLOUDY    14   8  77 SE3       30.45F
MONTROSE       CLOUDY    13   7  77 SE5       30.47F WCI   5
CORTEZ         CLOUDY    12   8  84 E8        30.41F WCI   0
PAGE, AZ       CLEAR     28  22  78 SE3       30.45F
GRAND CANYON   CLEAR     20  11  68 E3        30.39F
KINGMAN        CLEAR     34  23  64 E7        30.32F WCI  28
FLAGSTAFF      CLEAR     14  10  84 CALM      30.40S

$$

REGIONAL REPORTS    NEVADA/IDAHO/WYOMING

CITY           SKY/WX    TMP DP  RH WIND       PRES   REMARKS
LAS VEGAS, NV  CLEAR     46  26  45 E6        30.31F
ELY            PTCLDY     8   2  76 S14       30.46S WCI  -8
ELKO           PTCLDY     6   2  83 W3        30.52R
POCATELLO, ID  CLOUDY    32  25  75 SW10      30.45R WCI  24
BURLEY         PTCLDY    33  25  72 SW13      30.44R WCI  24
EVANSTON, WY   CLOUDY    26  14  60 W12       30.39R WCI  16
ROCK SPRINGS   CLOUDY    25  14  63 W17       30.34S WCI  12

$$




USA.gov is the U.S. government's official web portal to all federal, state and local government web resources and services.